Regional Weather Roundup
Issued by NWS

Home | Current Version | Previous Version | Text Only | Print | Product List | Glossary Off
Versions: 1 2 3 4 5 6 7 8 9 10 11 12 13 14 15 16 17 18 19 20 21 22 23 24 25 26 27 28 29 30 31 32 33 34 35 36 37 38 39 40 41 42 43 44 45 46 47 48 49 50

000
ASUS43 KLSX 290159
RWRMO

WEATHER SUMMARY FOR MISSOURI
NATIONAL WEATHER SERVICE SPRINGFIELD MO
900 PM CDT SAT MAR 28 2015

NOTE: "FAIR" INDICATES FEW OR NO CLOUDS BELOW 12,000 FEET WITH NO
       SIGNIFICANT WEATHER AND/OR OBSTRUCTIONS TO VISIBILITY.
       CURRENT SKY AND/OR WEATHER CONDITIONS ARE NOT AVAILABLE FOR
       CHILLICOTHE AND FARMINGTON.

MOZ001>031-035>038-043-044-053-054-290300-
...NORTHERN AND WESTERN MISSOURI...

CITY           SKY/WX    TMP DP  RH WIND       PRES   REMARKS
KANSAS CTY INT CLEAR     43  31  62 SE9       30.11R
KANSAS C DTWN  CLEAR     49  30  48 SE12      30.12R
LEE`S SUMMIT   CLEAR     45  30  55 SE7       30.13S
ST JOSEPH      CLEAR     46  32  58 SE9       30.11R
CHILLICOTHE      N/A     44  30  57 SE7       30.16S
KIRKSVILLE     CLEAR     37  25  61 SE9       30.18S

$$
MOZ066>068-077>081-088>096-101>105-290300-
...SOUTHWEST MISSOURI...

CITY           SKY/WX    TMP DP  RH WIND       PRES   REMARKS
SPRINGFIELD    CLEAR     39  31  72 SE16      30.16R
JOPLIN         CLEAR     46  34  62 E12       30.11S

$$
MOZ032>034-039>042-045>050-055>058-069>072-290300-
...CENTRAL MISSOURI...

CITY           SKY/WX    TMP DP  RH WIND       PRES   REMARKS
COLUMBIA       CLEAR     42  27  55 SE7       30.19S
JEFFERSON CITY CLEAR     42  28  57 S8        30.21R
ROLLA          CLEAR     37  29  72 S8        30.19S
SEDALIA        CLEAR     43  31  62 SE10      30.18R
OSAGE BEACH    CLEAR     39  28  65 S7        30.20S

$$
MOZ051-052-059>065-290300-
...EAST CENTRAL MISSOURI...

CITY           SKY/WX    TMP DP  RH WIND       PRES   REMARKS
ST LOUIS INTL  CLEAR     40  17  39 E9        30.28R
SPIRIT OF STL  CLEAR     40  17  39 E6        30.26R
ST CHARLES     CLEAR     35  25  66 E10       30.27R WCI  27

$$
MOZ072>076-082>087-097>100-106>115-290300-
...SOUTH CENTRAL AND SOUTHEAST MISSOURI...

CITY           SKY/WX    TMP DP  RH WIND       PRES   REMARKS
CAPE GIRARDEAU CLEAR     38  28  67 S6        30.30R
FARMINGTON     CLEAR     37  21  52 SE6       30.29R
POPLAR BLUFF   CLEAR     40  31  70 SW5       30.29R
WEST PLAINS    CLOUDY    36  29  75 SE7       30.25S

$$


USA.gov is the U.S. government's official web portal to all federal, state and local government web resources and services.